This is the latest recevied weather packets stored in our database for station/object IV3CGM-13. If no packets are shown the sender has not sent any weather packets the latest 1 day(s).
| Time | Temp. | Humidity | Pressure | Rain* | Wind** | Luminosity | Snow |
|---|---|---|---|---|---|---|---|
| 1778076173 | 13.89° C | 98% | 1010.2 hPa | 2.03 mm | - | 72 W/m² | - |
| 1778074097 | 13.33° C | 97% | 1010.3 hPa | 4.32 mm | - | 151 W/m² | - |
| 1778073410 | 13.33° C | 99% | 1010.5 hPa | 7.62 mm | - | 117 W/m² | - |
| 1778072673 | 13.33° C | 99% | 1010.7 hPa | 9.65 mm | - | 86 W/m² | - |
| 1778071977 | 13.33° C | 99% | 1010.7 hPa | 9.65 mm | - | 148 W/m² | - |
| 1778070585 | 12.78° C | 99% | 1010.5 hPa | 9.14 mm | - | 116 W/m² | - |
| 1778069897 | 12.78° C | 99% | 1010.5 hPa | 8.89 mm | - | 64 W/m² | - |
| 1778067084 | 12.78° C | 99% | 1010.5 hPa | 13.21 mm | - | 82 W/m² | - |
| 1778064959 | 13.33° C | 97% | 1010.7 hPa | 2.03 mm | - | 27 W/m² | - |
| 1778063584 | 13.89° C | 99% | 1010.7 hPa | 1.27 mm | - | 38 W/m² | - |
| 1778061521 | 13.89° C | 99% | 1010.9 hPa | 1.27 mm | - | 58 W/m² | - |
| 1778060847 | 13.89° C | 99% | 1011 hPa | 1.27 mm | - | 70 W/m² | - |
| 1778060146 | 13.89° C | 99% | 1011 hPa | 0.76 mm | - | 31 W/m² | - |
| 1778058771 | 13.89° C | 99% | 1011 hPa | 3.56 mm | - | 96 W/m² | - |
| 1778058083 | 13.33° C | 99% | 1010.9 hPa | 6.35 mm | - | 149 W/m² | - |
| 1778055258 | 13.33° C | 99% | 1010.6 hPa | 4.32 mm | - | 54 W/m² | - |
| 1778054578 | 13.33° C | 99% | 1010.7 hPa | 1.27 mm | - | 81 W/m² | - |
| 1778053834 | 12.78° C | 99% | 1010.8 hPa | 0.51 mm | - | 35 W/m² | - |
| 1778053133 | 12.78° C | 99% | 1010.9 hPa | 0.51 mm | - | 16 W/m² | - |
| 1778052445 | 12.78° C | 99% | 1010.8 hPa | 0.51 mm | - | 26 W/m² | - |
| 1778051758 | 12.78° C | 99% | 1010.8 hPa | 0.51 mm | - | 33 W/m² | - |
| 1778051071 | 12.78° C | 99% | 1010.8 hPa | 0 mm | - | 22 W/m² | - |
| 1778050334 | 12.78° C | 99% | 1010.9 hPa | 0 mm | - | 48 W/m² | - |
| 1778046133 | 12.78° C | 97% | 1011 hPa | 0 mm | - | 32 W/m² | - |
| 1778045420 | 12.78° C | 94% | 1010.9 hPa | 0 mm | - | 48 W/m² | - |
* Rain latest hour (hover to see other rain measurements)
** Current wind speed in m/s (hover to see current wind gust speed)